FW8253 Weather Reports


Display with metric or nautical units.
time (UTC)temp
F
wind
direction
speed
MPH
gust
MPH
rain 1hr
in
rain 24hr
in
rain mn
in
humidity
%
barometer
mb
20260903041055 80 219 0.0 0.0 0.00 0.00 0.00 89 1018.4
20260903040554 80 186 0.0 0.0 0.00 0.00 0.00 89 1018.5
20260903040052 80 181 0.0 0.0 0.00 0.00 0.00 89 1018.5
20260903035546 80 180 0.0 0.0 0.00 0.00 0.00 88 1018.5
20260903035043 80 179 0.0 0.0 0.00 0.00 0.00 88 1018.5
20260903034537 80 191 0.0 0.0 0.00 0.00 0.00 87 1018.4
20260903034032 81 191 0.0 0.0 0.00 0.00 0.00 87 1018.7
20260903033527 81 183 0.0 0.0 0.00 0.00 0.00 86 1018.5
20260903033023 81 185 0.0 0.0 0.00 0.00 0.00 87 1018.3
20260903032518 81 179 0.0 0.0 0.00 0.00 0.00 86 1018.7
20260903032013 81 175 0.0 0.0 0.00 0.00 0.00 86 1018.5
20260903031513 81 183 0.0 0.0 0.00 0.00 0.00 86 1018.6
20260903031008 81 190 0.0 0.0 0.00 0.00 0.00 86 1018.4
20260903030503 81 189 0.0 0.0 0.00 0.00 0.00 85 1018.5
20260903025959 81 188 0.0 0.0 0.00 0.00 0.00 86 1018.6
20260903025455 81 189 0.0 0.0 0.00 0.00 0.00 85 1018.5
20260903024950 81 191 0.0 0.0 0.00 0.00 0.00 85 1018.6
20260903024449 81 187 0.0 0.0 0.00 0.00 0.00 85 1018.3
20260903023944 81 199 0.0 0.0 0.00 0.00 0.00 85 1018.5
20260903023440 81 185 0.0 0.0 0.00 0.00 0.00 85 1018.4
20260903022934 81 184 0.0 0.0 0.00 0.00 0.00 85 1018.8
20260903022428 81 177 0.0 0.0 0.00 0.00 0.00 85 1018.5
20260903021927 81 178 0.0 0.0 0.00 0.00 0.00 85 1018.3
20260903021423 82 182 0.0 0.0 0.00 0.00 0.00 85 1018.3
20260903020923 82 185 0.0 0.0 0.00 0.00 0.00 85 1018.5
20260903020418 82 173 0.0 0.0 0.00 0.00 0.00 84 1018.2
20260903015913 82 173 0.0 0.0 0.00 0.00 0.00 84 1018.4
20260903015408 82 174 0.0 0.0 0.00 0.00 0.00 84 1018.2
20260903014903 82 174 0.0 0.0 0.00 0.00 0.00 84 1018.2
20260903014357 82 174 0.0 0.0 0.00 0.00 0.00 83 1018.1
20260903013852 82 174 0.0 0.0 0.00 0.00 0.00 83 1018.1
20260903013351 83 174 0.0 0.0 0.00 0.00 0.00 82 1018.0
20260903012851 83 175 0.0 0.0 0.00 0.00 0.00 82 1017.8
20260903012345 83 176 0.0 0.0 0.00 0.00 0.00 82 1017.7
20260903011839 83 175 0.0 0.0 0.00 0.00 0.00 81 1017.9
20260903011338 83 229 0.0 0.0 0.00 0.00 0.00 81 1017.9
20260903010834 84 229 0.0 0.0 0.00 0.00 0.00 81 1017.8
20260903010329 84 229 0.0 0.0 0.00 0.00 0.00 81 1017.4
20260903005827 84 229 0.0 0.0 0.00 0.00 0.00 80 1017.7
20260903005323 84 229 0.0 0.0 0.00 0.00 0.00 79 1017.4
20260903004818 85 229 0.0 0.0 0.00 0.00 0.00 79 1017.5
20260903004314 85 229 0.0 0.0 0.00 0.00 0.00 78 1017.3
20260903003809 85 229 0.0 0.0 0.00 0.00 0.00 78 1017.3
20260903003304 85 229 0.0 0.0 0.00 0.00 0.00 79 1017.3
20260903002758 86 228 0.0 0.0 0.00 0.00 0.00 77 1017.2
20260903002258 86 228 0.0 0.0 0.00 0.00 0.00 76 1017.0
20260903001753 86 227 0.0 0.0 0.00 0.00 0.00 76 1017.2
20260903001248 87 227 0.0 0.0 0.00 0.00 0.00 75 1017.1
20260903000743 87 227 0.0 0.0 0.00 0.00 0.00 75 1017.2
20260903000243 87 227 0.0 0.0 0.00 0.00 0.00 75 1016.9
20260902235741 88 227 0.0 0.0 0.00 0.00 0.00 75 1017.1
20260902235237 88 229 0.0 0.0 0.00 0.00 0.00 74 1017.0
20260902234736 89 224 0.0 0.0 0.00 0.00 0.00 73 1017.0
20260902234236 89 221 0.0 0.0 0.00 0.00 0.00 72 1016.9
20260902233736 89 222 0.0 0.0 0.00 0.00 0.00 72 1017.0
20260902233230 89 224 0.0 0.0 0.00 0.00 0.00 72 1016.9
20260902232728 90 229 0.0 0.0 0.00 0.00 0.00 71 1016.9
20260902232223 90 224 0.0 0.0 0.00 0.00 0.00 71 1016.8
20260902231717 90 234 0.0 0.0 0.00 0.00 0.00 70 1016.9
20260902231217 90 226 0.0 0.0 0.00 0.00 0.00 70 1016.9
20260902230713 90 232 0.0 0.0 0.00 0.00 0.00 69 1017.0
20260902230212 91 234 0.0 0.0 0.00 0.00 0.00 68 1016.6
20260902225707 91 234 0.0 0.0 0.00 0.00 0.00 69 1016.5
20260902225207 91 231 0.0 0.0 0.00 0.00 0.00 67 1016.8
20260902224705 91 229 0.0 0.0 0.00 0.00 0.00 67 1016.6
20260902224201 92 232 0.0 0.0 0.00 0.00 0.00 67 1016.5
20260902223657 92 234 0.0 0.0 0.00 0.00 0.00 65 1016.8
20260902223156 92 221 0.0 0.0 0.00 0.00 0.00 63 1016.4
20260902222655 93 232 0.0 0.0 0.00 0.00 0.00 64 1016.7
20260902222154 93 280 0.0 0.0 0.00 0.00 0.00 61 1016.6
20260902221649 94 223 0.0 0.0 0.00 0.00 0.00 61 1016.9
20260902221149 96 227 0.0 0.0 0.00 0.00 0.00 59 1016.8
20260902220644 96 218 0.0 0.0 0.00 0.00 0.00 57 1016.6
20260902220139 96 231 0.0 0.0 0.00 0.00 0.00 58 1016.7
20260902215635 96 224 0.0 0.0 0.00 0.00 0.00 58 1016.8
20260902215131 96 212 0.0 0.0 0.00 0.00 0.00 57 1016.7
20260902214631 95 184 0.0 0.0 0.00 0.00 0.00 56 1017.0
20260902214129 95 219 0.0 0.0 0.00 0.00 0.00 58 1016.9
20260902213626 95 233 0.0 0.0 0.00 0.00 0.00 59 1016.9
20260902213124 95 264 0.0 0.0 0.00 0.00 0.00 58 1016.7
20260902212620 95 237 0.0 0.0 0.00 0.00 0.00 58 1016.9
20260902212116 96 219 0.0 0.0 0.00 0.00 0.00 57 1016.9
20260902211613 97 229 0.0 0.0 0.00 0.00 0.00 56 1017.2
20260902211108 97 261 0.0 0.0 0.00 0.00 0.00 55 1016.8
20260902210607 97 212 0.0 0.0 0.00 0.00 0.00 57 1017.0
20260902205601 97 8 0.0 0.0 0.00 0.00 0.00 57 1017.2
20260902205057 96 235 0.0 0.0 0.00 0.00 0.00 56 1017.2
20260902204556 96 201 0.0 0.0 0.00 0.00 0.00 59 1017.0
20260902204051 95 232 0.0 0.0 0.00 0.00 0.00 60 1017.0
20260902203547 94 220 0.0 0.0 0.00 0.00 0.00 64 1017.1
20260902203045 93 250 0.0 0.0 0.00 0.00 0.00 66 1017.2
20260902202536 94 237 0.0 0.0 0.00 0.00 0.00 63 1017.3
20260902202032 96 242 0.0 0.0 0.00 0.00 0.00 61 1017.4
20260902201528 96 238 0.0 0.0 0.00 0.00 0.00 56 1017.7
20260902201027 97 146 0.0 0.0 0.00 0.00 0.00 57 1017.5
20260902200522 97 237 0.0 0.0 0.00 0.00 0.00 58 1017.6
20260902200018 97 246 0.0 0.0 0.00 0.00 0.00 60 1017.3
20260902195514 97 229 0.0 0.0 0.00 0.00 0.00 60 1017.6
20260902195013 97 255 0.0 0.0 0.00 0.00 0.00 61 1017.8
20260902194507 98 242 0.0 0.0 0.00 0.00 0.00 58 1017.9
20260902194002 98 236 0.0 0.0 0.00 0.00 0.00 55 1017.8
20260902193458 99 225 0.0 0.0 0.00 0.00 0.00 53 1017.7
20260902192956 99 156 0.0 0.0 0.00 0.00 0.00 52 1018.1
20260902192456 100 180 0.0 0.0 0.00 0.00 0.00 52 1017.9
20260902191954 100 243 0.0 0.0 0.00 0.00 0.00 51 1017.7
20260902191450 98 244 0.0 0.0 0.00 0.00 0.00 53 1018.0
20260902190945 95 182 0.0 0.0 0.00 0.00 0.00 57 1018.1
20260902190440 95 330 0.0 0.0 0.00 0.00 0.00 60 1018.1
20260902185936 95 229 0.0 0.0 0.00 0.00 0.00 61 1018.2
20260902185432 96 227 0.0 0.0 0.00 0.00 0.00 61 1018.0
20260902184927 95 254 0.0 0.0 0.00 0.00 0.00 59 1018.1
20260902184422 95 192 0.0 0.0 0.00 0.00 0.00 58 1018.1
20260902183918 94 228 0.0 0.0 0.00 0.00 0.00 62 1018.3
20260902183414 94 271 0.0 0.0 0.00 0.00 0.00 58 1018.4
20260902182909 95 235 0.0 0.0 0.00 0.00 0.00 61 1018.5
20260902182406 98 247 0.0 0.0 0.00 0.00 0.00 57 1018.7
20260902181902 99 34 0.0 0.0 0.00 0.00 0.00 53 1018.6
20260902181357 97 181 0.0 0.0 0.00 0.00 0.00 56 1018.7
20260902180857 96 327 0.0 0.0 0.00 0.00 0.00 56 1018.4
20260902180352 94 241 0.0 0.0 0.00 0.00 0.00 58 1018.7
20260902175847 95 231 0.0 0.0 0.00 0.00 0.00 58 1018.9
20260902175343 95 56 0.0 0.0 0.00 0.00 0.00 56 1018.7
20260902174838 96 230 0.0 0.0 0.00 0.00 0.00 56 1019.0
20260902174335 95 226 0.0 0.0 0.00 0.00 0.00 57 1018.9
20260902173825 96 246 0.0 0.0 0.00 0.00 0.00 58 1019.0
20260902173324 98 221 0.0 0.0 0.00 0.00 0.00 56 1019.1
20260902172818 97 113 0.0 0.0 0.00 0.00 0.00 56 1019.0
20260902172313 97 50 0.0 0.0 0.00 0.00 0.00 55 1019.1
20260902171808 94 144 0.0 0.0 0.00 0.00 0.00 60 1019.4
20260902171303 94 236 0.0 0.0 0.00 0.00 0.00 64 1019.4
20260902170800 95 229 0.0 0.0 0.00 0.00 0.00 61 1019.4
20260902170255 96 154 0.0 0.0 0.00 0.00 0.00 59 1019.5
20260902165750 96 234 0.0 0.0 0.00 0.00 0.00 59 1019.4
20260902165250 98 85 0.0 0.0 0.00 0.00 0.00 56 1019.3
20260902164744 97 83 0.0 0.0 0.00 0.00 0.00 57 1019.5
20260902164238 96 12 0.0 0.0 0.00 0.00 0.00 57 1019.5
20260902163734 96 182 0.0 0.0 0.00 0.00 0.00 58 1019.8
20260902163233 96 126 0.0 0.0 0.00 0.00 0.00 58 1019.4
20260902162732 96 220 0.0 0.0 0.00 0.00 0.00 60 1019.8
20260902162226 95 222 0.0 0.0 0.00 0.00 0.00 60 1019.7
20260902161722 96 100 0.0 0.0 0.00 0.00 0.00 59 1019.9
20260902161217 96 223 0.0 0.0 0.00 0.00 0.00 59 1019.8
20260902160714 96 160 0.0 0.0 0.00 0.00 0.00 56 1019.9
20260902160208 95 223 0.0 0.0 0.00 0.00 0.00 59 1019.9
20260902155706 94 233 0.0 0.0 0.00 0.00 0.00 62 1019.9
20260902155205 93 192 0.0 0.0 0.00 0.00 0.00 62 1020.1
20260902154700 93 207 0.0 0.0 0.00 0.00 0.00 60 1020.0
20260902154155 94 207 0.0 0.0 0.00 0.00 0.00 57 1020.1
20260902153655 94 267 0.0 0.0 0.00 0.00 0.00 63 1020.2
20260902153149 93 219 0.0 0.0 0.00 0.00 0.00 64 1020.1
20260902152646 92 196 0.0 0.0 0.00 0.00 0.00 63 1020.3
20260902152141 92 249 0.0 0.0 0.00 0.00 0.00 65 1020.1
20260902151636 92 216 0.0 0.0 0.00 0.00 0.00 64 1020.1
20260902151131 93 223 0.0 0.0 0.00 0.00 0.00 65 1020.2
20260902150626 92 167 0.0 0.0 0.00 0.00 0.00 65 1020.1
20260902150121 91 230 0.0 0.0 0.00 0.00 0.00 67 1020.0
20260902145616 91 212 0.0 0.0 0.00 0.00 0.00 70 1020.2
20260902145115 91 135 0.0 0.0 0.00 0.00 0.00 69 1020.1
20260902144612 92 339 0.0 0.0 0.00 0.00 0.00 69 1020.1
20260902144112 90 224 0.0 0.0 0.00 0.00 0.00 71 1020.3
20260902143607 90 157 0.0 0.0 0.00 0.00 0.00 74 1020.3
20260902143103 89 28 0.0 0.0 0.00 0.00 0.00 75 1020.3
20260902142558 90 148 0.0 0.0 0.00 0.00 0.00 75 1020.2
20260902142054 90 149 0.0 0.0 0.00 0.00 0.00 75 1020.2
20260902141548 88 161 0.0 0.0 0.00 0.00 0.00 76 1020.2
20260902141043 88 83 0.0 0.0 0.00 0.00 0.00 75 1020.3
20260902140538 86 195 0.0 0.0 0.00 0.00 0.00 80 1020.3
20260902140033 87 93 0.0 0.0 0.00 0.00 0.00 80 1020.1
20260902135532 85 167 0.0 0.0 0.00 0.00 0.00 82 1020.2
20260902135027 84 170 0.0 0.0 0.00 0.00 0.00 85 1020.4
20260902134524 82 201 0.0 0.0 0.00 0.00 0.00 88 1020.3
20260902134023 82 201 0.0 0.0 0.00 0.00 0.00 88 1020.2
20260902133523 82 213 0.0 0.0 0.00 0.00 0.00 87 1020.5
20260902133018 82 252 0.0 0.0 0.00 0.00 0.00 89 1020.2
20260902132513 81 252 0.0 0.0 0.00 0.00 0.00 90 1020.2
20260902132009 80 283 0.0 0.0 0.00 0.00 0.00 90 1020.4
20260902131505 80 178 0.0 0.0 0.00 0.00 0.00 91 1020.4
20260902131004 80 178 0.0 0.0 0.00 0.00 0.00 92 1020.4
20260902130501 79 178 0.0 0.0 0.00 0.00 0.00 94 1020.3
20260902125955 78 177 0.0 0.0 0.00 0.00 0.00 95 1020.4
20260902125452 77 177 0.0 0.0 0.00 0.00 0.00 98 1020.3
20260902124947 76 177 0.0 0.0 0.00 0.00 0.00 99 1020.3
20260902124443 75 177 0.0 0.0 0.00 0.00 0.00 99 1020.4
20260902123938 75 177 0.0 0.0 0.00 0.00 0.00 99 1020.3
20260902123434 74 177 0.0 0.0 0.00 0.00 0.00 99 1020.4
20260902122932 74 177 0.0 0.0 0.00 0.00 0.00 99 1020.4
20260902122428 74 177 0.0 0.0 0.00 0.00 0.00 99 1020.5
20260902121924 73 177 0.0 0.0 0.00 0.00 0.00 99 1020.5
20260902121418 73 177 0.0 0.0 0.00 0.00 0.00 99 1020.5
20260902120913 73 177 0.0 0.0 0.00 0.00 0.00 99 1020.5
20260902120410 73 177 0.0 0.0 0.00 0.00 0.00 99 1020.4
20260902115909 73 177 0.0 0.0 0.00 0.00 0.00 99 1020.4
20260902115405 73 177 0.0 0.0 0.00 0.00 0.00 99 1020.2
20260902114902 72 177 0.0 0.0 0.00 0.00 0.00 99 1020.0
20260902114357 72 177 0.0 0.0 0.00 0.00 0.00 99 1020.2
20260902113857 72 177 0.0 0.0 0.00 0.00 0.00 99 1020.2
20260902113353 72 177 0.0 0.0 0.00 0.00 0.00 99 1020.2
20260902112852 72 177 0.0 0.0 0.00 0.00 0.00 99 1019.9
20260902112349 72 177 0.0 0.0 0.00 0.00 0.00 99 1020.1
20260902111844 72 177 0.0 0.0 0.00 0.00 0.00 99 1020.0
20260902111341 72 177 0.0 0.0 0.00 0.00 0.00 99 1020.0
20260902110836 72 177 0.0 0.0 0.00 0.00 0.00 99 1019.9
20260902110332 72 177 0.0 0.0 0.00 0.00 0.00 99 1019.9
20260902105831 72 177 0.0 0.0 0.00 0.00 0.00 99 1019.8
20260902105326 72 177 0.0 0.0 0.00 0.00 0.00 99 1019.9
20260902104821 72 177 0.0 0.0 0.00 0.00 0.00 99 1019.8
20260902104318 72 177 0.0 0.0 0.00 0.00 0.00 99 1019.8
20260902103818 72 177 0.0 0.0 0.00 0.00 0.00 99 1019.9
20260902103312 72 177 0.0 0.0 0.00 0.00 0.00 99 1019.8
20260902102808 72 177 0.0 0.0 0.00 0.00 0.00 99 1019.6
20260902102307 72 177 0.0 0.0 0.00 0.00 0.00 99 1019.8
20260902101801 72 177 0.0 0.0 0.00 0.00 0.00 99 1019.6
20260902101255 73 177 0.0 0.0 0.00 0.00 0.00 99 1019.5
20260902100755 73 177 0.0 0.0 0.00 0.00 0.00 99 1019.3
20260902100249 72 178 0.0 0.0 0.00 0.00 0.00 99 1019.5
20260902095743 72 179 0.0 0.0 0.00 0.00 0.00 99 1019.5
20260902095238 73 179 0.0 0.0 0.00 0.00 0.00 99 1019.7
20260902094732 73 179 0.0 0.0 0.00 0.00 0.00 99 1019.5
20260902094229 73 179 0.0 0.0 0.00 0.00 0.00 99 1019.5
20260902093728 73 179 0.0 0.0 0.00 0.00 0.00 99 1019.4
20260902093224 73 179 0.0 0.0 0.00 0.00 0.00 99 1019.4
20260902092723 73 179 0.0 0.0 0.00 0.00 0.00 99 1019.6
20260902092218 73 179 0.0 0.0 0.00 0.00 0.00 99 1019.3
20260902091718 73 179 0.0 0.0 0.00 0.00 0.00 99 1019.4
20260902091214 73 179 0.0 0.0 0.00 0.00 0.00 99 1019.1
20260902090710 73 179 0.0 0.0 0.00 0.00 0.00 99 1019.1
20260902090209 73 179 0.0 0.0 0.00 0.00 0.00 99 1019.2
20260902085704 73 179 0.0 0.0 0.00 0.00 0.00 99 1019.2
20260902085159 73 179 0.0 0.0 0.00 0.00 0.00 99 1019.2
20260902084655 73 179 0.0 0.0 0.00 0.00 0.00 99 1019.2
20260902084151 73 179 0.0 0.0 0.00 0.00 0.00 99 1019.3
20260902083646 73 179 0.0 0.0 0.00 0.00 0.00 99 1018.9
20260902083145 73 179 0.0 0.0 0.00 0.00 0.00 99 1019.3
20260902082641 73 179 0.0 0.0 0.00 0.00 0.00 99 1019.0
20260902082137 74 178 0.0 0.0 0.00 0.00 0.00 99 1019.0
20260902081633 74 179 0.0 0.0 0.00 0.00 0.00 99 1019.0
20260902081128 74 180 0.0 0.0 0.00 0.00 0.00 99 1019.0
20260902080623 74 180 0.0 0.0 0.00 0.00 0.00 99 1018.9
20260902080120 74 180 0.0 0.0 0.00 0.00 0.00 99 1019.0
20260902075619 74 180 0.0 0.0 0.00 0.00 0.00 99 1018.8
20260902075116 74 180 0.0 0.0 0.00 0.00 0.00 99 1018.9
20260902074611 74 180 0.0 0.0 0.00 0.00 0.00 99 1018.8
20260902074106 74 180 0.0 0.0 0.00 0.00 0.00 99 1018.8
20260902073601 74 180 0.0 0.0 0.00 0.00 0.00 99 1018.9
20260902073058 74 180 0.0 0.0 0.00 0.00 0.00 99 1018.8
20260902072553 74 180 0.0 0.0 0.00 0.00 0.00 99 1018.8
20260902072050 74 180 0.0 0.0 0.00 0.00 0.00 99 1018.8
20260902071549 75 180 0.0 0.0 0.00 0.00 0.00 99 1018.7
20260902071045 75 180 0.0 0.0 0.00 0.00 0.00 99 1018.8
20260902070540 75 180 0.0 0.0 0.00 0.00 0.00 98 1018.7
20260902070035 75 180 0.0 0.0 0.00 0.00 0.00 98 1019.0
20260902065529 75 180 0.0 0.0 0.00 0.00 0.00 98 1018.7
20260902065024 75 180 0.0 0.0 0.00 0.00 0.00 98 1019.0
20260902064520 75 180 0.0 0.0 0.00 0.00 0.00 98 1019.0
20260902064016 75 180 0.0 0.0 0.00 0.00 0.00 98 1018.9
20260902063515 75 180 0.0 0.0 0.00 0.00 0.00 98 1019.3
20260902063011 75 180 0.0 0.0 0.00 0.00 0.00 97 1019.3
20260902062509 75 180 0.0 0.0 0.00 0.00 0.00 97 1019.4
20260902062005 75 180 0.0 0.0 0.00 0.00 0.00 97 1019.2
20260902061505 75 180 0.0 0.0 0.00 0.00 0.00 97 1019.2
20260902061001 76 180 0.0 0.0 0.00 0.00 0.00 97 1019.3
20260902060457 76 180 0.0 0.0 0.00 0.00 0.00 97 1019.1
20260902055953 76 180 0.0 0.0 0.00 0.00 0.00 97 1019.2
20260902055449 76 180 0.0 0.0 0.00 0.00 0.00 97 1019.2
20260902054944 76 180 0.0 0.0 0.00 0.00 0.00 96 1019.2
20260902054439 76 180 0.0 0.0 0.00 0.00 0.00 96 1019.3
20260902053934 76 180 0.0 0.0 0.00 0.00 0.00 96 1019.3
20260902053430 76 180 0.0 0.0 0.00 0.00 0.00 95 1019.1
20260902052929 76 176 0.0 0.0 0.00 0.00 0.00 95 1019.3
20260902052424 77 176 0.0 0.0 0.00 0.00 0.00 95 1019.5
20260902051919 77 176 0.0 0.0 0.00 0.00 0.00 94 1019.3
20260902051414 77 176 0.0 0.0 0.00 0.00 0.00 94 1019.1
20260902050912 77 177 0.0 0.0 0.00 0.00 0.00 94 1019.2
20260902050413 77 177 0.0 0.0 0.00 0.00 0.00 94 1019.2
20260902045908 77 177 0.0 0.0 0.00 0.00 0.00 94 1019.2
20260902045403 77 177 0.0 0.0 0.00 0.00 0.00 93 1019.1
20260902044859 77 177 0.0 0.0 0.00 0.00 0.00 93 1019.2
20260902044354 77 177 0.0 0.0 0.00 0.00 0.00 93 1019.2
20260902043849 77 177 0.0 0.0 0.00 0.00 0.00 93 1019.1
20260902043344 77 177 0.0 0.0 0.00 0.00 0.00 93 1019.0
20260902042839 77 177 0.0 0.0 0.00 0.00 0.00 93 1019.1
20260902042338 77 177 0.0 0.0 0.00 0.00 0.00 92 1019.2
20260902041834 78 177 0.0 0.0 0.00 0.00 0.00 92 1019.0
20260902041334 78 177 0.0 0.0 0.00 0.00 0.00 92 1019.0